Retour au catalogue

FORMOSAT 3C

ActifMétéoLEO
NORAD 29049·PAYLOAD·🇹🇼 Taiwan

Lancé Apr 15, 2006 depuis Vandenberg Space Force Base

Loading…

Prochains Passages (prochaines 24 heures)

TLE

FraisSource: Space-Track

Époque: Sep 14, 2026, 14:20 UTC

1 29049U 06011C   26257.59751390  .00000280  00000-0  12019-3 0  9999
2 29049  72.0172 221.0014 0032280  49.4038 310.9901 14.31459004 65463

Suivez FORMOSAT 3C en temps réel avec AllMySat

Download on the App Store